Date,TemperatureHighF,TemperatureAvgF,TemperatureLowF,DewpointHighF,DewpointAvgF,DewpointLowF,HumidityHigh,HumidityAvg,HumidityLow,PressureMaxIn,PressureMinIn,WindSpeedMaxMPH,WindSpeedAvgMPH,GustSpeedMaxMPH,PrecipitationSumIn
2013-10-1,68,51,41,54,46,41,100,88,55,30.00,29.91,11,3,12,0.00
2013-10-2,68,54,42,55,48,38,100,82,57,30.03,29.91,15,5,20,0.00
2013-10-3,66,50,34,50,43,34,100,81,55,30.12,30.00,7,2,10,0.00
2013-10-4,68,56,49,61,55,42,100,95,74,30.03,29.97,11,3,12,0.00
2013-10-5,66,58,55,64,58,55,100,100,100,30.06,30.00,10,1,11,0.00
2013-10-6,84,73,62,81,72,62,100,95,76,30.00,29.85,30,9,30,0.00
2013-10-7,77,67,54,73,64,46,100,89,67,29.97,29.62,32,13,40,0.00
2013-10-8,66,54,42,54,48,42,100,84,55,30.33,29.97,13,3,19,0.00
2013-10-9,72,51,37,54,45,37,100,84,54,30.39,30.27,8,3,10,0.00
2013-10-10,62,47,35,49,42,35,100,87,56,30.27,30.12,8,2,9,0.00
2013-10-11,70,50,38,52,42,37,100,78,55,30.12,30.06,12,2,13,0.00
2013-10-12,71,49,34,53,42,32,100,78,54,30.21,30.09,11,3,13,0.00
2013-10-13,61,51,42,48,43,40,100,76,59,30.27,30.21,23,9,25,0.00
2013-10-14,51,46,43,47,43,39,100,91,66,30.27,30.24,17,6,21,0.00
2013-10-15,62,48,38,52,45,38,100,90,65,30.24,30.00,16,2,22,0.00
2013-10-16,56,51,47,51,45,38,100,82,66,30.00,29.80,22,12,26,0.00
2013-10-17,60,48,38,50,44,38,100,87,56,29.85,29.65,14,4,18,0.00
2013-10-18,52,44,34,44,39,34,100,85,58,29.91,29.65,22,6,27,0.00
2013-10-19,54,44,35,42,37,33,100,80,58,29.91,29.65,26,10,30,0.00
2013-10-20,45,36,28,36,32,28,100,84,62,29.97,29.71,21,6,25,0.00
2013-10-21,55,44,31,40,34,30,100,66,56,30.00,29.80,30,14,31,0.00
2013-10-22,44,36,26,34,28,21,100,75,59,29.83,29.71,20,6,23,0.00
2013-10-23,38,29,23,29,25,20,100,86,62,29.80,29.62,14,4,26,0.00
2013-10-24,37,27,18,27,22,18,100,83,59,29.94,29.74,22,8,27,0.00
2013-10-25,37,28,24,30,26,24,100,93,67,30.12,29.94,18,6,22,0.00
2013-10-26,34,29,26,28,23,18,100,76,60,30.09,29.80,34,15,40,0.00
2013-10-27,37,31,26,28,24,19,100,77,59,30.06,29.80,17,6,23,0.00
2013-10-28,42,30,14,30,22,13,100,74,59,30.33,30.03,16,7,23,0.00
2013-10-29,37,22,10,24,15,10,100,79,59,30.45,30.27,8,2,10,0.00
2013-10-30,45,30,24,35,25,16,100,80,60,30.27,30.18,11,3,12,0.00